RA76123 UHSS-UHSS

Flight info

Callsign RA76123
Flight time N/A
Altitude 3000
Route VFR
Aircraft B738/M-SDE2E3FGHIRWXY/LB1

Departure

Time 2026-05-04 08:24
Airport Yuzhno-Sakhalinsk International Airport (UHSS)

Arrival

Time N/A
Airport Yuzhno-Sakhalinsk International Airport (UHSS)
Time Latitude Longitude Altitude Speed Heading
2026-05-04 08:08 46.88786 142.72253 59 ft 0 kts 89°
2026-05-04 08:16 46.88785 142.72197 62 ft 2 kts 90°
2026-05-04 08:16 46.88784 142.72159 61 ft 1 kts 94°
2026-05-04 08:16 46.88789 142.72129 61 ft 0 kts 140°
2026-05-04 08:17 46.88811 142.72110 57 ft 0 kts 148°
2026-05-04 08:17 46.88814 142.72110 60 ft 0 kts
2026-05-04 08:19 46.89029 142.71757 63 ft 17 kts 204°
2026-05-04 08:19 46.88847 142.71739 59 ft 37 kts 181°
2026-05-04 08:20 46.88547 142.71732 63 ft 53 kts 181°
2026-05-04 08:20 46.88146 142.71723 61 ft 58 kts 181°
2026-05-04 08:20 46.87754 142.71713 58 ft 55 kts 181°
2026-05-04 08:20 46.87380 142.71705 58 ft 52 kts 180°
2026-05-04 08:21 46.87085 142.71730 57 ft 17 kts 173°
2026-05-04 08:21 46.87067 142.71689 57 ft 4 kts
2026-05-04 08:21 46.87102 142.71695 61 ft 5 kts
2026-05-04 08:21 46.87103 142.71695 61 ft 0 kts
2026-05-04 08:22 46.87165 142.71698 60 ft 34 kts
2026-05-04 08:22 46.87673 142.71710 63 ft 110 kts
2026-05-04 08:24 46.96139 142.69330 3608 ft 238 kts 302°
2026-05-04 08:24 46.96553 142.66940 4060 ft 249 kts 282°
2026-05-04 08:24 46.96686 142.64374 4041 ft 255 kts 272°
2026-05-04 08:24 46.96238 142.61860 4040 ft 260 kts 241°
2026-05-04 08:25 46.95003 142.59963 4040 ft 260 kts 208°
2026-05-04 08:25 46.93296 142.59130 4073 ft 266 kts 184°
2026-05-04 08:25 46.91384 142.58784 4061 ft 283 kts 182°
2026-05-04 08:25 46.89417 142.58487 4064 ft 284 kts 181°
2026-05-04 08:26 46.87454 142.58194 4001 ft 283 kts 181°
2026-05-04 08:27 46.73860 142.56228 3714 ft 258 kts 181°
2026-05-04 08:28 46.72125 142.56023 3608 ft 241 kts 179°
2026-05-04 08:28 46.70511 142.55820 3501 ft 225 kts 181°
2026-05-04 08:28 46.69009 142.55609 3372 ft 208 kts 178°
2026-05-04 08:28 46.67704 142.55991 3184 ft 180 kts 140°
2026-05-04 08:29 46.66966 142.57260 2837 ft 167 kts 93°
2026-05-04 08:29 46.67103 142.59042 3078 ft 174 kts 75°
2026-05-04 08:29 46.67273 142.60610 3052 ft 146 kts 77°
2026-05-04 08:31 46.70028 142.70395 2031 ft 161 kts 51°
2026-05-04 08:33 46.77825 142.71482 1789 ft 164 kts
2026-05-04 08:33 46.78965 142.71509 1566 ft 163 kts
2026-05-04 08:35 46.86911 142.71690 127 ft 162 kts
2026-05-04 08:35 46.87953 142.71715 86 ft 137 kts
2026-05-04 08:35 46.88825 142.71737 101 ft 122 kts
2026-05-04 08:35 46.89700 142.71798 609 ft 134 kts
2026-05-04 08:37 46.89498 142.63964 2198 ft 236 kts 191°
2026-05-04 08:37 46.87817 142.63813 2330 ft 247 kts 177°
2026-05-04 08:37 46.86036 142.63849 2138 ft 266 kts 175°
2026-05-04 08:38 46.84228 142.63924 2201 ft 253 kts 177°
2026-05-04 08:38 46.82508 142.63825 2165 ft 245 kts 172°
2026-05-04 08:38 46.81118 142.65009 2199 ft 229 kts 110°
2026-05-04 08:40 46.85744 142.71656 281 ft 146 kts
2026-05-04 08:40 46.86742 142.71683 128 ft 137 kts
2026-05-04 08:40 46.87658 142.71709 100 ft 125 kts